Location: Arthez
(43.0833°N, 0.2500°W)
Time: 23:34:33
(UTC+00:00)

deb Kosmos-970 - Pass Details

Date: 25 August 2022
Orbit: 900 x 1112 km, 65.8° (Epoch: 28 September)

Event Time Altitude Azimuth Distance (km) Brightness Sun altitude
Rises 21:30:42 0° 329° (NNW) 3,943 ? -26.1°
Reaches altitude 10° 21:33:37 10° 337° (NNW) 2,972 ? -26.5°
Maximum altitude 21:40:14 41° 46° (NE) 1,524 ? -27.3°
Enters shadow 21:41:37 37° 73° (ENE) 1,605 ? -27.5°
